Time,TemperatureF,DewpointF,PressureIn,WindDirection,WindDirectionDegrees,WindSpeedMPH,WindSpeedGustMPH,Humidity,HourlyPrecipIn,Conditions,Clouds,dailyrainin,SoftwareType,DateUTC
2013-07-08 00:00:00,56.5,48.0,30.39,West,279,0.0,0.0,74,0.00,,,-99.99,wx200d/1.3,2013-07-08 07:00:00,
2013-07-08 00:15:00,56.5,48.0,30.39,West,268,0.0,0.0,74,0.00,,,-99.99,wx200d/1.3,2013-07-08 07:15:00,
2013-07-08 00:30:00,56.1,48.0,30.39,SE,144,0.0,0.0,74,0.00,,,-99.99,wx200d/1.3,2013-07-08 07:30:00,
2013-07-08 00:45:00,55.8,48.0,30.39,East,89,0.0,0.0,76,0.00,,,-99.99,wx200d/1.3,2013-07-08 07:45:00,
2013-07-08 01:00:00,56.1,48.0,30.39,ENE,73,0.0,4.9,77,0.00,,,-99.99,wx200d/1.3,2013-07-08 08:00:00,
2013-07-08 01:15:00,56.3,50.0,30.39,WNW,287,0.0,0.0,76,0.00,,,-99.99,wx200d/1.3,2013-07-08 08:15:00,
2013-07-08 01:30:00,56.3,50.0,30.39,WNW,288,0.0,0.0,75,0.00,,,-99.99,wx200d/1.3,2013-07-08 08:30:00,
2013-07-08 01:45:00,56.5,48.0,30.39,WNW,283,0.0,0.0,74,0.00,,,-99.99,wx200d/1.3,2013-07-08 08:45:00,
2013-07-08 02:00:00,56.7,48.0,30.39,West,270,0.0,0.0,73,0.00,,,-99.99,wx200d/1.3,2013-07-08 09:00:00,
2013-07-08 02:15:00,56.7,48.0,30.39,West,262,0.0,0.0,72,0.00,,,-99.99,wx200d/1.3,2013-07-08 09:15:00,
2013-07-08 02:30:00,56.3,46.0,30.39,West,271,0.0,3.1,69,0.00,,,-99.99,wx200d/1.3,2013-07-08 09:30:00,
2013-07-08 02:45:00,55.4,45.0,30.39,West,269,0.0,0.0,69,0.00,,,-99.99,wx200d/1.3,2013-07-08 09:45:00,
2013-07-08 03:00:00,55.0,46.0,30.39,ENE,68,0.0,0.0,72,0.00,,,-99.99,wx200d/1.3,2013-07-08 10:00:00,
2013-07-08 03:15:00,55.4,46.0,30.39,WNW,291,0.0,0.0,73,0.00,,,-99.99,wx200d/1.3,2013-07-08 10:15:00,
2013-07-08 03:30:00,55.2,48.0,30.39,East,86,0.0,0.0,75,0.00,,,-99.99,wx200d/1.3,2013-07-08 10:30:00,
2013-07-08 03:45:00,55.8,48.0,30.39,NE,49,0.0,0.0,75,0.00,,,-99.99,wx200d/1.3,2013-07-08 10:45:00,
2013-07-08 04:00:00,55.8,48.0,30.39,ESE,114,0.0,0.0,74,0.00,,,-99.99,wx200d/1.3,2013-07-08 11:00:00,
2013-07-08 04:15:00,55.9,46.0,30.39,West,281,0.0,0.0,73,0.00,,,-99.99,wx200d/1.3,2013-07-08 11:15:00,
2013-07-08 04:30:00,56.3,48.0,30.42,ENE,63,0.0,0.0,72,0.00,,,-99.99,wx200d/1.3,2013-07-08 11:30:00,
2013-07-08 04:45:00,56.5,48.0,30.42,SSE,151,0.0,0.0,70,0.00,,,-99.99,wx200d/1.3,2013-07-08 11:45:00,
2013-07-08 05:00:00,56.7,46.0,30.42,West,273,0.0,0.0,67,0.00,,,-99.99,wx200d/1.3,2013-07-08 12:00:00,
2013-07-08 05:15:00,56.7,45.0,30.42,WNW,282,0.0,0.0,65,0.00,,,-99.99,wx200d/1.3,2013-07-08 12:15:00,
2013-07-08 05:30:00,56.8,45.0,30.42,West,272,0.0,0.0,64,0.00,,,-99.99,wx200d/1.3,2013-07-08 12:30:00,
2013-07-08 05:45:00,56.8,45.0,30.42,West,273,0.0,0.0,63,0.00,,,-99.99,wx200d/1.3,2013-07-08 12:45:00,
2013-07-08 06:00:00,56.8,45.0,30.42,West,273,0.0,0.0,62,0.00,,,-99.99,wx200d/1.3,2013-07-08 13:00:00,
2013-07-08 06:15:00,57.0,45.0,30.42,West,272,0.0,0.0,61,0.00,,,-99.99,wx200d/1.3,2013-07-08 13:15:00,
2013-07-08 06:30:00,57.2,43.0,30.42,WSW,254,0.0,0.0,60,0.00,,,-99.99,wx200d/1.3,2013-07-08 13:30:00,
2013-07-08 06:45:00,57.7,43.0,30.42,NNE,24,0.0,0.0,59,0.00,,,-99.99,wx200d/1.3,2013-07-08 13:45:00,
2013-07-08 07:00:00,58.1,45.0,30.45,West,267,0.0,0.0,57,0.00,,,-99.99,wx200d/1.3,2013-07-08 14:00:00,
2013-07-08 07:15:00,59.0,43.0,30.45,West,266,0.0,0.0,54,0.00,,,-99.99,wx200d/1.3,2013-07-08 14:15:00,
2013-07-08 07:30:00,60.3,41.0,30.45,West,275,0.0,0.0,49,0.00,,,-99.99,wx200d/1.3,2013-07-08 14:30:00,
2013-07-08 07:45:00,62.6,41.0,30.45,West,275,0.0,0.0,44,0.00,,,-99.99,wx200d/1.3,2013-07-08 14:45:00,
2013-07-08 08:00:00,65.1,36.0,30.45,West,259,0.0,0.0,35,0.00,,,-99.99,wx200d/1.3,2013-07-08 15:00:00,
2013-07-08 08:15:00,65.3,36.0,30.47,West,269,0.0,0.0,33,0.00,,,-99.99,wx200d/1.3,2013-07-08 15:15:00,
2013-07-08 08:30:00,64.4,36.0,30.45,East,94,0.0,0.0,34,0.00,,,-99.99,wx200d/1.3,2013-07-08 15:30:00,
2013-07-08 08:45:00,64.8,34.0,30.45,WSW,256,0.0,0.0,33,0.00,,,-99.99,wx200d/1.3,2013-07-08 15:45:00,
2013-07-08 09:00:00,64.4,36.0,30.45,West,262,0.0,0.0,34,0.00,,,-99.99,wx200d/1.3,2013-07-08 16:00:00,
2013-07-08 09:15:00,65.1,34.0,30.47,East,86,0.0,0.0,33,0.00,,,-99.99,wx200d/1.3,2013-07-08 16:15:00,
2013-07-08 09:30:00,63.7,36.0,30.47,SE,132,2.2,3.6,34,0.00,,,-99.99,wx200d/1.3,2013-07-08 16:30:00,
2013-07-08 09:45:00,62.2,36.0,30.45,East,95,4.0,4.0,36,0.00,,,-99.99,wx200d/1.3,2013-07-08 16:45:00,
2013-07-08 10:00:00,64.2,36.0,30.45,West,281,2.7,2.7,34,0.00,,,-99.99,wx200d/1.3,2013-07-08 17:00:00,
2013-07-08 10:15:00,65.5,36.0,30.47,WSW,254,0.0,0.0,33,0.00,,,-99.99,wx200d/1.3,2013-07-08 17:15:00,
2013-07-08 10:30:00,65.8,36.0,30.45,West,277,0.0,2.7,33,0.00,,,-99.99,wx200d/1.3,2013-07-08 17:30:00,
2013-07-08 10:45:00,66.6,34.0,30.45,WNW,299,0.0,0.0,31,0.00,,,-99.99,wx200d/1.3,2013-07-08 17:45:00,
2013-07-08 11:00:00,66.6,34.0,30.47,West,269,0.0,2.2,30,0.00,,,-99.99,wx200d/1.3,2013-07-08 18:00:00,
2013-07-08 11:15:00,66.6,34.0,30.45,SSW,204,0.0,2.7,29,0.00,,,-99.99,wx200d/1.3,2013-07-08 18:15:00,
2013-07-08 11:45:00,66.2,34.0,30.47,NE,42,0.0,0.0,29,0.00,,,-99.99,wx200d/1.3,2013-07-08 18:45:00,
2013-07-08 12:00:00,66.0,34.0,30.47,NW,319,0.0,2.2,30,0.00,,,-99.99,wx200d/1.3,2013-07-08 19:00:00,
2013-07-08 12:16:00,66.2,34.0,30.47,North,357,0.0,0.0,29,0.00,,,-99.99,wx200d/1.3,2013-07-08 19:16:00,
2013-07-08 12:45:00,66.2,34.0,30.47,West,276,0.0,0.0,29,0.00,,,-99.99,wx200d/1.3,2013-07-08 19:45:00,
2013-07-08 13:00:00,66.4,34.0,30.47,West,270,0.0,2.7,29,0.00,,,-99.99,wx200d/1.3,2013-07-08 20:00:00,
2013-07-08 13:30:00,66.7,34.0,30.47,NE,55,2.7,0.0,29,0.00,,,-99.99,wx200d/1.3,2013-07-08 20:30:00,
2013-07-08 14:00:00,66.6,34.0,30.45,West,262,2.2,3.6,29,0.00,,,-99.99,wx200d/1.3,2013-07-08 21:00:00,
2013-07-08 14:30:00,67.3,34.0,30.45,West,274,2.2,0.0,29,0.00,,,-99.99,wx200d/1.3,2013-07-08 21:30:00,
2013-07-08 14:46:00,67.5,34.0,30.47,ESE,106,0.0,3.1,29,0.00,,,-99.99,wx200d/1.3,2013-07-08 21:46:00,
2013-07-08 15:15:00,68.0,34.0,30.45,NW,309,2.2,2.2,28,0.00,,,-99.99,wx200d/1.3,2013-07-08 22:15:00,
2013-07-08 15:30:00,68.4,34.0,30.47,West,261,0.0,0.0,28,0.00,,,-99.99,wx200d/1.3,2013-07-08 22:30:00,
2013-07-08 15:45:00,68.4,34.0,30.45,South,191,2.2,4.9,28,0.00,,,-99.99,wx200d/1.3,2013-07-08 22:45:00,
2013-07-08 16:00:00,68.0,34.0,30.45,ENE,70,2.7,2.7,28,0.00,,,-99.99,wx200d/1.3,2013-07-08 23:00:00,
2013-07-08 16:15:00,68.4,34.0,30.45,East,94,3.1,4.0,28,0.00,,,-99.99,wx200d/1.3,2013-07-08 23:15:00,
2013-07-08 17:30:00,69.3,34.0,30.45,West,267,0.0,0.0,27,0.00,,,-99.99,wx200d/1.3,2013-07-09 00:30:00,
2013-07-08 17:45:00,69.6,34.0,30.42,West,276,0.0,0.0,26,0.00,,,-99.99,wx200d/1.3,2013-07-09 00:45:00,
2013-07-08 18:00:00,71.8,34.0,30.45,West,280,0.0,2.7,25,0.00,,,-99.99,wx200d/1.3,2013-07-09 01:00:00,
2013-07-08 18:15:00,69.1,34.0,30.45,NW,308,0.0,3.1,26,0.00,,,-99.99,wx200d/1.3,2013-07-09 01:15:00,
2013-07-08 19:00:00,61.5,39.0,30.42,WNW,290,0.0,3.6,44,0.00,,,-99.99,wx200d/1.3,2013-07-09 02:00:00,
2013-07-08 19:15:00,60.4,43.0,30.42,WNW,287,0.0,3.1,50,0.00,,,-99.99,wx200d/1.3,2013-07-09 02:15:00,
2013-07-08 19:45:00,59.7,43.0,30.45,West,275,2.2,5.4,55,0.00,,,-99.99,wx200d/1.3,2013-07-09 02:45:00,
2013-07-08 20:00:00,58.8,45.0,30.45,ENE,73,2.2,0.0,59,0.00,,,-99.99,wx200d/1.3,2013-07-09 03:00:00,
2013-07-08 20:30:00,57.6,45.0,30.45,East,91,0.0,0.0,65,0.00,,,-99.99,wx200d/1.3,2013-07-09 03:30:00,
2013-07-08 20:45:00,57.7,46.0,30.45,West,269,0.0,0.0,68,0.00,,,-99.99,wx200d/1.3,2013-07-09 03:45:00,
2013-07-08 21:00:00,57.4,46.0,30.47,West,265,0.0,0.0,69,0.00,,,-99.99,wx200d/1.3,2013-07-09 04:00:00,
2013-07-08 21:15:00,57.4,48.0,30.45,West,281,0.0,0.0,71,0.00,,,-99.99,wx200d/1.3,2013-07-09 04:15:00,
2013-07-08 21:30:00,57.6,48.0,30.47,East,91,0.0,0.0,71,0.00,,,-99.99,wx200d/1.3,2013-07-09 04:30:00,
2013-07-08 21:45:00,57.6,48.0,30.47,WNW,290,0.0,0.0,71,0.00,,,-99.99,wx200d/1.3,2013-07-09 04:45:00,
2013-07-08 22:00:00,57.2,48.0,30.47,West,273,0.0,0.0,71,0.00,,,-99.99,wx200d/1.3,2013-07-09 05:00:00,
2013-07-08 22:15:00,56.8,48.0,30.47,West,269,0.0,0.0,72,0.00,,,-99.99,wx200d/1.3,2013-07-09 05:15:00,
2013-07-08 22:30:00,56.8,48.0,30.47,West,271,0.0,0.0,74,0.00,,,-99.99,wx200d/1.3,2013-07-09 05:30:00,
2013-07-08 22:45:00,56.7,50.0,30.47,WNW,295,0.0,3.6,75,0.00,,,-99.99,wx200d/1.3,2013-07-09 05:45:00,
2013-07-08 23:00:00,56.5,50.0,30.50,NE,46,0.0,0.0,76,0.00,,,-99.99,wx200d/1.3,2013-07-09 06:00:00,
2013-07-08 23:15:00,56.5,50.0,30.50,East,95,0.0,0.0,78,0.00,,,-99.99,wx200d/1.3,2013-07-09 06:15:00,
2013-07-08 23:30:00,55.8,48.0,30.50,SE,139,0.0,0.0,78,0.00,,,-99.99,wx200d/1.3,2013-07-09 06:30:00,
2013-07-08 23:45:00,55.0,48.0,30.47,WSW,246,0.0,0.0,78,0.00,,,-99.99,wx200d/1.3,2013-07-09 06:45:00,